Flag for Finland Weather past 2 weeks in Kokkola, Finland

Now
34 °F

Sunny.


Feels Like: 34 °F
Forecast: 46 / 59 °F
Wind: No wind

Location: Kruunupyy

Current Time: Aug 31, 2014 at 7:45:22 AM

Latest Report: Aug 31, 2014 at 7:20 AM


Visibility: 10 mi

Pressure: 30.21 "Hg

Humidity: 100%

Dew point: 34 °F

Location of KokkolaLocation

Historic Weather in Kokkola — Graph

°F

Kokkola temperature yesterday

Maximum temperature yesterday: 57 °F (at 3:20 PM)
Minimum temperature yesterday: 37 °F (at 1:20 AM)
Average temperature yesterday: 48 °F

Past Weeks' High & Low Weather Summary

 TemperatureHumidityPressure
High68 °F (Aug 19, 2:50 PM)100% (Aug 16, 6:20 AM)30.21 "Hg (Aug 16, 6:20 AM)
Low32 °F (Aug 31, 4:50 AM)39% (Aug 17, 4:20 PM)29.36 "Hg (Aug 18, 4:20 PM)
Average55 °F87%29.66 "Hg
* Reported Aug 16 6:20 AM — Aug 31 6:20 AM, Kokkola, Weather by CustomWeather, © 2014

Note: Actual official high and low records may vary slightly from our data, if they occured in-between our weather recording intervals... More about our weather records

Advertising

Kokkola weather history for previous 24 hours

 ConditionsComfort  
Time TempWeatherWind HumidityBarometerVisibility
6:20 AM
Aug 31
32 °FClear.No wind93%30.21 "Hg10 mi
5:50 AM32 °FClear.No wind100%30.21 "Hg10 mi
5:20 AM32 °FClear.1 mph93%30.21 "Hg10 mi
4:50 AM32 °FClear.No wind100%30.21 "Hg10 mi
4:20 AM34 °FClear.No wind93%30.21 "Hg10 mi
3:50 AM34 °FClear.No wind100%30.21 "Hg4 mi
3:20 AM34 °FClear.No wind100%30.21 "Hg10 mi
2:50 AM36 °FClear.No wind93%30.21 "HgN/A
2:20 AM36 °FFog.No wind100%30.18 "Hg1 mi
1:50 AM37 °FClear.No wind100%30.18 "Hg6 mi
1:20 AM37 °FClear.1 mph93%30.18 "Hg10 mi
12:50 AM37 °FClear.2 mph100%30.18 "Hg10 mi
12:20 AM37 °FClear.2 mph100%30.18 "Hg10 mi
11:50 PM
Aug 30
39 °FClear.3 mph100%30.18 "Hg10 mi
11:20 PM39 °FClear.2 mph93%30.15 "Hg5 mi
10:50 PM39 °FFog.No wind100%30.15 "Hg2 mi
10:20 PM41 °FClear.No wind100%30.15 "Hg4 mi
9:50 PM43 °FClear.No wind93%30.15 "Hg6 mi
9:20 PM45 °FSunny.1 mph93%30.15 "Hg10 mi
8:20 PM50 °FSunny.3 mph76%30.12 "Hg10 mi
7:50 PM52 °FSunny.5 mph72%30.12 "Hg10 mi
7:20 PM54 °FSunny.5 mph67%30.12 "Hg10 mi
6:50 PM54 °FPassing clouds.8 mph63%30.12 "HgN/A
6:20 PM54 °FSunny.9 mph63%30.12 "Hg10 mi
5:50 PM55 °FPassing clouds.8 mph63%30.12 "HgN/A
5:20 PM55 °FPassing clouds.9 mph59%30.12 "HgN/A
4:50 PM55 °FPassing clouds.9 mph59%30.12 "HgN/A
4:20 PM57 °FPassing clouds.8 mph55%30.12 "HgN/A
3:50 PM55 °FPartly sunny.9 mph59%30.12 "HgN/A
3:20 PM57 °FPartly sunny.10 mph55%30.12 "HgN/A
2:50 PM55 °FOvercast.8 mph55%30.12 "HgN/A
2:20 PM55 °FPartly sunny.7 mph55%30.12 "HgN/A
1:50 PM55 °FMore clouds than sun.9 mph55%30.09 "HgN/A
1:20 PM55 °FPartly sunny.12 mph55%30.09 "HgN/A
12:50 PM55 °FPartly sunny.9 mph55%30.09 "HgN/A
12:20 PM55 °FPartly sunny.8 mph55%30.09 "HgN/A
11:50 AM55 °FOvercast.8 mph55%30.09 "HgN/A
11:20 AM54 °FPartly sunny.9 mph58%30.09 "HgN/A
10:50 AM54 °FOvercast.7 mph63%30.09 "HgN/A
10:20 AM54 °FPartly sunny.6 mph63%30.09 "HgN/A
9:50 AM52 °FOvercast.5 mph67%30.09 "HgN/A
9:20 AM50 °FPartly sunny.5 mph71%30.09 "HgN/A
8:50 AM50 °FOvercast.3 mph76%30.07 "HgN/A
8:20 AM48 °FPartly sunny.2 mph82%30.07 "HgN/A
7:50 AM46 °FOvercast.2 mph87%30.07 "HgN/A
7:20 AM46 °FPartly sunny.2 mph87%30.07 "HgN/A
Weather by CustomWeather, © 2014

See weather overviewHow to use our weather pages